Location: Mt. Bigelow
(32.4165°N, 110.7345°W)
Time: 09:42:38
(UTC-07:00)

N. Korean satellite - Pass Details

Date: 27 February 2019
Orbit: 455 x 511 km, 97.2° (Epoch: 18 March)

Event Time Altitude Azimuth Distance (km) Brightness Sun altitude
Rises 05:43:27 0° 31° (NNE) 2,468 10.6 -15.5°
Reaches altitude 10° 05:46:00 10° 52° (NE) 1,589 9.9 -14.9°
Maximum altitude 05:48:21 17° 95° (E) 1,202 9.7 -14.4°
Drops below altitude 10° 05:50:42 10° 139° (SE) 1,586 9.8 -13.9°
Sets 05:53:13 0° 160° (SSE) 2,459 10.4 -13.4°
